Weather in Quva

Uzbekistan     40°31′25″N   72°04′07″E
temp.,
°C
wind,
m/s
gust,
m/s
humid.,
%
clouds,
%
prec.,
mm/h
press.,
hPa
HPBL,
m
23 january, sat
sat2323:00−2wnw3851100 0.1 1040423
02:00−3ese125987 0.0 104169
05:00−3w136187 0.0 1042110
08:00−5ene236476 0.0 104639
11:00−1nw124967 0.0 1041758
14:00−1n224489 0.0 1040975
17:00+1ne014264 0.0 1038634
20:00−2e1155100 0.0 104323
24 january, sun
sun2423:00−3ne1258100 0.0 104327
02:00−2ne3468100 0.0 1041136
05:00−3nne237662 0.0 104162
08:00−4n126612 0.0 104199
11:00−2wnw115178 0.0 1038400
14:00+2nne23440 0.0 10341026
17:00+2nne22430 0.0 103553
20:00−2sse11630 0.0 103621
25 january, mon
mon2523:00−3ese00670 0.0 103521
02:00−3ene11690 0.0 103421
05:00−3ne116662 0.0 103322
08:00−4n017329 0.0 103321
11:00+1nnw114860 0.0 1030346
14:00+3n214042 0.0 1027584
17:00+1n1154100 0.0 102922
20:00−1ese1160100 0.0 103121
26 january, tue
tue2623:00−1ne015367 0.0 103222
02:00−2nne016058 0.0 103122
05:00−2e015897 0.0 103121
08:00−2ne015779 0.0 103221
11:00+2n11430 0.0 1030317
14:00+5n11350 0.0 1027531
17:00+3ene01428 0.0 102822
20:00+1e12430 0.0 103222
27 january, wed
wed2723:000ese015223 0.0 103122
02:00−1n01562 0.0 103222
05:00−2nnw01591 0.0 103321
08:00−2nnw01550 0.0 103321
11:00+3nnw11400 0.0 1031303
14:00+6n11310 0.0 1028512
17:00+4wnw01390 0.0 102822
20:00+2se11460 0.0 103122